Asheville, NC

4:25 PM EDT on April 23, 2018 (GMT -0400)
Asheville Regional

Weather History for KAVL - January, 2015

Change the Weather History Date:

Saturday, January 17, 2015

  Actual Average Record
Temperature  
Mean Temperature 38 °F 37 °F  
Max Temperature 53 °F 47 °F 73 °F (1943)
Min Temperature 22 °F 26 °F -6 °F (1982)
Degree Days  
Heating Degree Days 27 28  
Month to date heating degree days 501 476  
Since 1 July heating degree days 2055 2137  
Cooling Degree Days 0 0  
Month to date cooling degree days 0 0  
Year to date cooling degree days 0 0  
Moisture  
Dew Point 25 °F    
Average Humidity 65    
Maximum Humidity 92    
Minimum Humidity 38    
Precipitation  
Precipitation 0.00 in 0.12 in 2.23 in (2013)
Month to date precipitation 2.23 1.96  
Year to date precipitation 2.23 1.96  
Snow  
Snow 0.00 in 0.10 in 1.50 in (2008)
Month to date snowfall T 2.2  
Since 1 July snowfall 3.2 3.2  
Snow Depth 0.00 in    
Sea Level Pressure  
Sea Level Pressure 30.23 in    
Wind  
Wind Speed 6 mph (SSE)    
Max Wind Speed 23 mph    
Max Gust Speed 27 mph    
Visibility 10 miles    
Events      
T = Trace of Precipitation, MM = Missing Value Source: NWS Daily Summary

Daily Weather History Graph

Daily Weather History Graph

Search for Another Location

Airport or City:

Astronomy

Jan. 17, 2015 Rise Set
Actual Time 7:38 AM EST 5:42 PM EST
Civil Twilight 7:10 AM EST 6:10 PM EST
Nautical Twilight 6:39 AM EST 6:41 PM EST
Astronomical Twilight 6:08 AM EST 7:11 PM EST
Moon 4:34 AM EST (1/17) 3:06 PM EST (1/17)
Length of Visible Light 10h 59m
Length of Day
10h 04m
Waning Crescent, 11% of the Moon is Illuminated
Jan 17
Waning Crescent
Jan 20
New
Jan 26
First Quarter
Feb 3
Full
Feb 11
Last Quarter

Hourly Weather History & Observations

Time (EST) Temp. Windchill Dew Point Humidity Pressure Visibility Wind Dir Wind Speed Gust Speed Precip Events Conditions
12:54 AM 27.0 °F - 23.0 °F 85% 30.25 in 10.0 mi Calm Calm - N/A   Clear
1:54 AM 26.1 °F - 23.0 °F 88% 30.25 in 10.0 mi Calm Calm - N/A   Clear
2:54 AM 26.1 °F - 23.0 °F 88% 30.26 in 10.0 mi Calm Calm - N/A   Clear
3:54 AM 25.0 °F - 21.9 °F 88% 30.25 in 10.0 mi Calm Calm - N/A   Clear
4:54 AM 25.0 °F - 21.9 °F 88% 30.25 in 10.0 mi Calm Calm - N/A   Clear
5:54 AM 24.1 °F - 21.0 °F 88% 30.27 in 10.0 mi Calm Calm - N/A   Clear
6:54 AM 24.1 °F - 19.9 °F 84% 30.28 in 10.0 mi Calm Calm - N/A   Clear
7:54 AM 21.9 °F - 19.9 °F 92% 30.29 in 10.0 mi Calm Calm - N/A   Clear
8:54 AM 28.0 °F 22.8 °F 25.0 °F 88% 30.30 in 10.0 mi SSE 4.6 mph - N/A   Clear
9:54 AM 35.1 °F 30.1 °F 28.0 °F 76% 30.31 in 10.0 mi SSE 5.8 mph - N/A   Clear
10:54 AM 45.0 °F 40.1 °F 28.0 °F 52% 30.30 in 10.0 mi SSE 9.2 mph - N/A   Clear
11:54 AM 48.0 °F - 28.0 °F 46% 30.27 in 10.0 mi SE 8.1 mph - N/A   Clear
12:34 PM 52.0 °F - 26.1 °F 37% 30.22 in 10.0 mi South 19.6 mph - N/A   Clear
12:54 PM 52.0 °F - 26.1 °F 37% 30.22 in 10.0 mi South 20.7 mph 25.3 mph N/A   Clear
1:54 PM 52.0 °F - 26.1 °F 37% 30.19 in 10.0 mi SE 13.8 mph - N/A   Clear
2:54 PM 52.0 °F - 28.0 °F 40% 30.19 in 10.0 mi South 18.4 mph 26.5 mph N/A   Clear
3:54 PM 50.0 °F - 28.0 °F 43% 30.18 in 10.0 mi South 11.5 mph 21.9 mph N/A   Clear
4:54 PM 48.9 °F - 28.9 °F 46% 30.17 in 10.0 mi South 15.0 mph - N/A   Clear
5:54 PM 46.0 °F 41.0 °F 27.0 °F 47% 30.18 in 10.0 mi South 10.4 mph - N/A   Clear
6:54 PM 42.1 °F 38.4 °F 28.0 °F 58% 30.19 in 10.0 mi SSE 5.8 mph - N/A   Clear
7:54 PM 39.0 °F 35.7 °F 28.0 °F 65% 30.19 in 10.0 mi SSE 4.6 mph - N/A   Clear
8:54 PM 37.0 °F 31.6 °F 28.0 °F 70% 30.17 in 10.0 mi South 6.9 mph - N/A   Clear
9:54 PM 36.0 °F 32.1 °F 27.0 °F 70% 30.17 in 10.0 mi SSE 4.6 mph - N/A   Clear
10:54 PM 36.0 °F 31.1 °F 28.0 °F 73% 30.14 in 10.0 mi SSE 5.8 mph - N/A   Scattered Clouds
11:54 PM 35.1 °F 31.0 °F 28.0 °F 76% 30.12 in 10.0 mi SE 4.6 mph - N/A   Mostly Cloudy